Location: Newark
(48.1500°N, 2.9667°W)
Time: 15:00:28
(UTC+00:00)

Altair - Pass Details

Date: 30 January 2020
Orbit: 1502 x 1682 km, 47.2° (Epoch: 22 February)

Event Time Altitude Azimuth Distance (km) Brightness Sun altitude
Rises 11:51:44 0° 282° (WNW) 4,925 10.0 23.7°
Reaches altitude 10° 11:54:53 10° 281° (W) 3,944 9.5 23.8°
Maximum altitude 12:05:01 74° 199° (SSW) 1,737 8.5 24.0°
Drops below altitude 10° 12:15:01 10° 117° (ESE) 3,899 10.1 24.1°
Sets 12:18:08 0° 116° (ESE) 4,866 10.5 24.1°
